Fredericksburg, Texas, United States (78624)
Lat: 30.27N, Lon: 98.87W
Wx Zone: TXZ188
Local Info
Past Weather Observations for Today

NOTE: This archive is for the closest National Weather Service station to Fredericksburg. Information may differ from the station used for current weather conditions.

Click here for Long-term Archive

Time Weather Temperature Dewpoint Humidity Pressure Winds Precip Visibility
16:15
Overcast
63°F / 17°C 59°F / 15°C 88% 30.12 in
(1020 mb)
NNE 6.9 mph
(NNE 11 kph)
- 10SM
15:55
Overcast
63°F / 17°C 59°F / 15°C 88% 30.12 in
(1020 mb)
N 6.9 mph
(N 11 kph)
- 10SM
15:35
Overcast
63°F / 17°C 59°F / 15°C 88% 30.12 in
(1020 mb)
NNE 12.7 mph
(NNE 20 kph)
- 10SM
15:15
Overcast
63°F / 17°C 59°F / 15°C 88% 30.12 in
(1020 mb)
N 13.8 mph
(N 22 kph)
- 10SM
14:55
Overcast
63°F / 17°C 61°F / 16°C 94% 30.12 in
(1020 mb)
N 12.7 mph
(N 20 kph)
- 10SM
14:35
Overcast
64°F / 18°C 61°F / 16°C 88% 30.12 in
(1020 mb)
N 12.7 mph
(N 20 kph)
- 10SM
14:15
Overcast
64°F / 18°C 61°F / 16°C 88% 30.12 in
(1020 mb)
N 11.5 mph
(N 19 kph)
- 10SM
13:55
Overcast
Rain
64°F / 18°C 61°F / 16°C 88% 30.15 in
(1021 mb)
N 11.5 mph
(N 19 kph)
0.01 in
(0.25 mm)
10SM
13:35
Overcast
Light Rain
64°F / 18°C 63°F / 17°C 94% 30.15 in
(1021 mb)
N 10.4 mph
(N 17 kph)
0.01 in
(0.25 mm)
10SM
13:15
Overcast
Light Rain
64°F / 18°C 63°F / 17°C 94% 30.15 in
(1021 mb)
N 13.8 mph
(N 22 kph)
- 10SM
12:55
Overcast
Light Rain
64°F / 18°C 63°F / 17°C 94% 30.15 in
(1021 mb)
NNE 9.2 mph
(NNE 15 kph)
0.02 in
(0.51 mm)
10SM
12:35
Overcast
Light Rain
64°F / 18°C 63°F / 17°C 94% 30.15 in
(1021 mb)
N 9.2 mph
(N 15 kph)
0.01 in
(0.25 mm)
10SM
12:15
Overcast
Light Rain
64°F / 18°C 63°F / 17°C 94% 30.18 in
(1022 mb)
NE 9.2 mph
(NE 15 kph)
- 10SM
11:55
Overcast
Light Rain
64°F / 18°C 63°F / 17°C 94% 30.18 in
(1022 mb)
NE 8.1 mph
(NE 13 kph)
0.02 in
(0.51 mm)
10SM
11:35
Overcast
Light Rain
64°F / 18°C 63°F / 17°C 94% 30.18 in
(1022 mb)
NNE 9.2 mph
(NNE 15 kph)
0.02 in
(0.51 mm)
10SM
11:15
Overcast
Rain
64°F / 18°C 63°F / 17°C 94% 30.18 in
(1022 mb)
N 6.9 mph
(N 11 kph)
0.01 in
(0.25 mm)
10SM
10:55
Overcast
Rain
64°F / 18°C 63°F / 17°C 94% 30.18 in
(1022 mb)
NNE 9.2 mph
(NNE 15 kph)
0.05 in
(1.27 mm)
10SM
10:35
Overcast
Light Rain
64°F / 18°C 63°F / 17°C 94% 30.18 in
(1022 mb)
N 5.8 mph
(N 9 kph)
0.03 in
(0.76 mm)
10SM
10:15
Overcast
Rain
64°F / 18°C 63°F / 17°C 94% 30.18 in
(1022 mb)
NNE 5.8 mph
(NNE 9 kph)
0.01 in
(0.25 mm)
10SM
09:55
Overcast
Drizzle
64°F / 18°C 63°F / 17°C 94% 30.18 in
(1022 mb)
N 4.6 mph
(N 7 kph)
0.01 in
(0.25 mm)
10SM
09:35
Overcast
Light Rain
64°F / 18°C 63°F / 17°C 94% 30.18 in
(1022 mb)
N 5.8 mph
(N 9 kph)
0.01 in
(0.25 mm)
10SM
09:15
Overcast
Drizzle
64°F / 18°C 63°F / 17°C 94% 30.18 in
(1022 mb)
N 9.2 mph
(N 15 kph)
- 10SM
08:55
Overcast
Light Rain
64°F / 18°C 63°F / 17°C 94% 30.18 in
(1022 mb)
N 5.8 mph
(N 9 kph)
0.45 in
(11.43 mm)
10SM
08:35
Overcast
Heavy Rain
64°F / 18°C 63°F / 17°C 94% 30.18 in
(1022 mb)
N 6.9 mph
(N 11 kph)
0.41 in
(10.41 mm)
5SM
08:15
Overcast
Heavy Rain
64°F / 18°C 63°F / 17°C 94% 30.18 in
(1022 mb)
NE 4.6 mph
(NE 7 kph)
0.27 in
(6.86 mm)
1SM
07:55
Overcast
Heavy Rain
64°F / 18°C 63°F / 17°C 94% 30.15 in
(1021 mb)
N 5.8 mph
(N 9 kph)
0.21 in
(5.33 mm)
3SM
07:35
Overcast
Heavy Rain
66°F / 19°C 64°F / 18°C 94% 30.15 in
(1021 mb)
NW 4.6 mph
(NW 7 kph)
0.12 in
(3.05 mm)
5SM
07:15
Overcast
Rain
66°F / 19°C 64°F / 18°C 94% 30.15 in
(1021 mb)
NNW 5.8 mph
(NNW 9 kph)
0.06 in
(1.52 mm)
7SM
06:55
Overcast
Rain
66°F / 19°C 64°F / 18°C 94% 30.12 in
(1020 mb)
N 8.1 mph
(N 13 kph)
0.49 in
(12.45 mm)
7SM
06:35
Overcast
Heavy Rain
66°F / 19°C 64°F / 18°C 94% 30.12 in
(1020 mb)
N 10.4 mph
(N 17 kph)
0.40 in
(10.16 mm)
7SM
06:15
Overcast
Heavy Rain
66°F / 19°C 64°F / 18°C 94% 30.12 in
(1020 mb)
NNW 12.7 mph
(NNW 20 kph)
0.28 in
(7.11 mm)
4SM
05:55
Overcast
Heavy Rain
66°F / 19°C 64°F / 18°C 94% 30.09 in
(1019 mb)
NNW 8.1 mph
(NNW 13 kph)
0.36 in
(9.14 mm)
4SM
05:35
Overcast
Heavy Rain
68°F / 20°C 66°F / 19°C 94% 30.09 in
(1019 mb)
N 10.4 mph
(N 17 kph)
0.12 in
(3.05 mm)
5SM
05:15
Overcast
Light Rain
68°F / 20°C 66°F / 19°C 94% 30.09 in
(1019 mb)
N 9.2 mph
(N 15 kph)
0.01 in
(0.25 mm)
10SM
04:55
Overcast
Drizzle
70°F / 21°C 68°F / 20°C 94% 30.09 in
(1019 mb)
N 4.6 mph
(N 7 kph)
0.01 in
(0.25 mm)
7SM
04:35
Overcast
Drizzle
70°F / 21°C 68°F / 20°C 94% 30.09 in
(1019 mb)
Calm 0.01 in
(0.25 mm)
7SM
04:15
Overcast
Drizzle
70°F / 21°C 68°F / 20°C 94% 30.09 in
(1019 mb)
Calm - 7SM
03:55
Overcast
Drizzle
70°F / 21°C 68°F / 20°C 94% 30.09 in
(1019 mb)
Calm 0.03 in
(0.76 mm)
10SM
03:35
Overcast
Drizzle
70°F / 21°C 68°F / 20°C 94% 30.09 in
(1019 mb)
Calm 0.03 in
(0.76 mm)
7SM
03:15
Overcast
Drizzle
70°F / 21°C 68°F / 20°C 94% 30.09 in
(1019 mb)
NE 3.5 mph
(NE 6 kph)
0.02 in
(0.51 mm)
7SM
02:55
Overcast
Rain
70°F / 21°C 68°F / 20°C 94% 30.09 in
(1019 mb)
NE 3.5 mph
(NE 6 kph)
0.04 in
(1.02 mm)
7SM
02:35
Overcast
70°F / 21°C 68°F / 20°C 94% 30.09 in
(1019 mb)
NE 4.6 mph
(NE 7 kph)
0.01 in
(0.25 mm)
10SM
02:15
Overcast
70°F / 21°C 68°F / 20°C 94% 30.09 in
(1019 mb)
NE 4.6 mph
(NE 7 kph)
0.01 in
(0.25 mm)
10SM
01:55
Overcast
Rain
70°F / 21°C 68°F / 20°C 94% 30.09 in
(1019 mb)
NE 4.6 mph
(NE 7 kph)
0.01 in
(0.25 mm)
7SM
01:35
Overcast
70°F / 21°C 68°F / 20°C 94% 30.09 in
(1019 mb)
NE 5.8 mph
(NE 9 kph)
- 10SM
01:15
Overcast
70°F / 21°C 68°F / 20°C 94% 30.09 in
(1019 mb)
NNE 5.8 mph
(NNE 9 kph)
- 10SM
00:55
Overcast
70°F / 21°C 68°F / 20°C 94% 30.09 in
(1019 mb)
NE 3.5 mph
(NE 6 kph)
- 10SM
00:35
Overcast
70°F / 21°C 68°F / 20°C 94% 30.09 in
(1019 mb)
N 4.6 mph
(N 7 kph)
- 10SM
00:15
Overcast
70°F / 21°C 68°F / 20°C 94% 30.09 in
(1019 mb)
NNE 3.5 mph
(NNE 6 kph)
- 10SM
Time Weather Temperature Dewpoint Humidity Pressure Winds Precip Visibility


Weather for websites

WeatherForYou.com, LLC is not responsible for any damages or problems caused by this service. Current weather conditions are obtained from the closest station including government and personal stations which may have varying degrees of accuracy. Weather forecasts are derived from the NOAA NDFD. Like all things, this site belongs to Jesus Christ... He just trusts us to maintain it. If you have any questions or comments email webmaster@weatherforyou.com

Copyright © 2016, WeatherForYou.com LLC. All rights reserved.